Wind_Speed
26 22 20 17 12 9 5 9 10 11 9 8 10 11 10 7 5 3 4 5 5 6 7 8 10 13 14 13 12 12 13 12 11 11 11 13 14 15 15 16 17 18 19
26 24 22 19 13 10 7 8 9 9 8 8 8 8 7 5 2 1 2 4 6 7 9 10 12 13 13 14 15 15 15 14 15 15 16 17 18 18 19 18 18 21 23
24 23 22 20 15 13 10 9 10 10 9 8 7 7 7 5 4 4 5 7 10 12 13 13 15 15 15 16 18 19 18 18 17 19 21 21 21 22 22 22 24 26 28
29 25 24 19 15 16 13 11 10 10 9 9 9 9 8 8 9 9 9 12 15 17 17 18 19 20 20 20 21 21 19 20 21 22 23 25 25 25 26 27 27 29 30
30 26 21 21 20 21 15 12 9 10 11 12 13 11 11 13 12 13 15 17 19 22 22 21 22 23 24 23 22 22 21 22 23 23 25 27 29 29 31 30 30 32 35
33 26 25 23 25 21 20 14 12 13 14 15 13 13 14 16 17 18 20 21 23 26 27 25 25 24 26 25 24 24 22 24 24 25 27 30 31 32 33 33 33 36 38
34 29 28 27 26 23 18 17 17 16 17 14 14 14 16 19 23 24 23 22 22 23 26 26 30 24 26 31 26 24 24 26 26 28 31 31 33 34 35 35 37 40 43
35 35 36 29 28 27 22 19 20 16 16 16 15 17 17 19 19 22 23 20 24 21 20 21 25 29 28 35 28 25 27 27 30 32 33 32 32 34 36 39 42 45 48
41 36 26 31 34 29 25 22 21 18 18 18 17 20 21 22 23 18 19 21 23 21 23 23 25 29 30 32 28 29 29 29 31 35 37 35 34 36 38 42 45 48 52
39 36 35 39 37 32 28 24 23 23 22 21 21 20 20 22 25 26 20 21 23 26 24 22 23 30 26 27 27 27 29 32 34 36 38 38 38 39 40 43 46 49 51
33 36 35 37 37 34 31 29 28 27 27 26 25 24 27 27 27 26 26 27 27 26 28 29 35 30 30 28 29 29 32 34 38 36 36 37 41 43 42 42 45 47 48
32 33 35 35 34 35 31 32 31 33 33 32 30 30 27 29 31 32 29 28 30 32 30 36 31 29 33 34 34 32 33 37 39 38 39 39 42 44 45 46 46 47 47
25 25 30 30 31 32 34 34 34 36 37 40 35 34 31 30 32 31 35 32 35 34 37 35 36 35 36 39 38 40 41 39 38 42 43 42 43 45 46 47 48 48 47
22 25 29 30 32 35 37 39 41 43 39 43 39 40 30 30 33 34 33 38 39 37 40 37 41 36 36 43 38 40 41 42 42 43 44 45 45 47 48 48 48 48 48
26 29 31 33 36 38 41 45 48 50 47 51 35 23 31 32 34 34 38 40 37 43 42 46 43 43 38 45 38 40 42 44 43 43 45 45 47 48 49 49 49 48 47
31 33 35 37 39 44 46 47 50 47 36 22 27 31 36 34 37 39 39 39 47 40 48 53 55 48 42 41 37 42 43 44 44 45 46 46 47 48 50 51 52 51 50
37 37 37 40 47 46 48 43 43 32 19 27 34 36 37 39 41 37 39 40 50 40 51 55 54 50 48 39 37 40 43 45 44 43 44 45 47 48 49 51 53 54 55
26 41 40 49 50 41 36 46 20 24 27 33 35 37 38 40 43 36 41 40 46 47 56 56 51 50 45 42 41 41 42 43 45 43 44 44 47 51 52 52 54 56 57
17 12 22 17 22 27 22 23 29 32 32 32 35 40 42 40 36 41 44 49 52 54 56 49 50 46 45 42 43 44 44 43 43 43 44 47 51 53 52 55 56 57 59
24 25 23 25 25 21 22 26 29 33 33 36 37 38 39 41 41 45 47 52 51 51 45 49 43 50 46 44 46 46 46 45 46 46 48 49 51 50 53 53 54 54 53
25 25 23 25 25 28 28 29 31 33 34 36 39 40 41 43 44 46 48 47 49 43 49 41 48 46 45 46 46 47 49 50 51 50 49 50 50 51 51 52 53 53 53
25 24 23 24 26 27 29 32 35 36 37 39 41 42 43 43 44 41 44 44 40 49 47 43 46 45 44 45 46 47 49 52 54 51 52 51 51 53 52 54 55 56 54
26 25 27 28 29 29 32 35 37 38 40 41 40 42 42 41 42 42 42 42 47 46 41 48 46 45 45 45 46 47 48 51 51 52 54 57 52 55 56 58 56 55 49
29 31 31 32 31 33 35 36 37 37 38 39 40 40 40 42 40 43 46 45 44 45 47 45 44 44 44 45 46 48 51 51 52 54 53 58 56 60 62 56 51 48 42
34 35 35 35 35 36 35 35 36 36 38 38 39 40 41 42 43 46 45 41 46 46 45 44 43 43 46 47 48 49 49 52 55 54 51 57 58 60 57 51 46 37 34
35 36 37 38 37 35 36 37 36 36 38 38 39 40 42 45 47 45 45 47 46 43 42 43 43 45 45 45 46 47 50 52 53 57 53 57 58 57 55 46 39 29 23
Wind_Direction
186 188 175 168 158 135 180 212 186 176 171 169 171 165 157 152 121 76 57 38 23 18 19 9 359 351 336 327 324 320 319 313 305 302 299 297 297 299 295 294 296 299 309
191 190 182 181 173 193 217 239 202 186 178 187 186 177 176 170 163 344 336 337 332 341 345 345 348 342 330 317 310 305 304 304 300 296 300 304 305 302 299 297 300 305 307
196 201 189 187 193 230 240 239 214 197 189 195 203 208 212 210 228 256 282 306 322 326 329 331 332 322 312 303 300 299 299 299 297 300 303 305 302 302 300 301 303 307 312
201 191 187 195 213 236 238 241 228 213 205 212 221 224 240 250 261 273 292 301 308 312 317 319 321 322 310 301 295 290 288 294 297 298 301 302 302 305 303 299 301 307 308
199 196 202 211 230 233 240 240 230 220 218 221 225 234 248 260 274 286 294 299 304 308 310 311 312 313 307 296 287 285 288 296 299 300 303 303 300 299 300 299 299 301 303
206 201 212 226 221 231 242 247 236 227 229 231 240 250 264 277 285 289 292 300 305 303 301 301 308 299 304 296 285 283 292 298 297 302 305 299 297 298 299 297 295 296 299
208 215 223 218 224 228 235 240 235 227 229 241 251 267 274 281 284 286 294 297 305 305 302 292 295 293 299 294 288 282 291 296 298 302 298 297 298 298 297 295 294 294 297
207 219 228 219 231 235 238 246 243 235 233 241 254 266 275 303 302 283 282 294 299 295 296 294 298 289 291 297 286 281 284 294 295 297 298 296 297 297 297 294 294 295 296
219 219 219 223 239 241 243 248 242 237 240 245 255 265 279 291 307 295 274 281 284 297 284 296 291 284 285 287 281 273 279 288 292 294 297 297 296 296 294 294 295 295 297
228 222 223 223 234 245 245 246 244 243 245 249 253 262 281 284 298 301 284 299 301 294 299 290 297 290 300 298 288 280 279 283 287 290 293 296 295 293 291 292 292 294 296
231 223 225 222 230 241 247 249 248 255 253 255 259 265 270 279 285 291 293 288 294 295 299 295 305 297 293 301 289 285 284 285 286 287 289 292 294 293 293 293 293 294 295
216 215 214 217 226 237 250 253 255 256 259 259 256 262 270 275 282 282 288 287 303 285 311 292 306 307 295 302 289 287 288 288 290 292 292 293 293 293 296 296 295 296 295
209 213 219 225 233 241 249 252 254 256 258 261 259 258 263 266 272 274 280 283 287 287 297 292 300 298 292 288 293 287 291 297 293 291 291 293 293 294 295 295 296 297 297
218 219 223 227 234 242 249 254 258 259 261 260 266 260 255 261 270 273 283 288 282 291 293 291 302 290 290 293 285 286 291 294 293 290 292 292 292 292 293 293 294 294 295
231 233 238 242 246 252 254 255 256 257 256 260 259 253 256 268 272 278 278 270 301 294 287 297 297 292 289 294 291 292 296 292 291 291 290 289 290 290 291 291 290 290 291
246 246 246 250 252 251 250 254 255 261 270 239 241 248 263 269 272 276 276 270 288 289 288 297 298 292 290 294 289 285 292 290 289 289 290 290 290 291 292 292 291 289 287
256 252 251 252 251 255 263 265 258 266 230 242 250 257 262 267 272 279 283 281 288 283 289 288 293 294 295 294 290 286 290 290 292 291 290 290 291 291 291 290 290 289 288
279 247 253 252 259 269 259 261 251 244 245 252 253 261 267 272 274 277 274 280 283 284 287 291 292 293 296 297 295 290 289 291 291 291 291 293 293 292 291 291 290 289 286
271 244 250 245 266 275 255 219 225 241 253 259 262 264 267 273 274 284 273 277 275 283 286 288 285 293 295 294 293 294 293 290 290 291 291 293 293 293 294 293 292 289 287
259 259 257 266 252 249 235 245 250 252 258 263 268 272 271 274 273 271 272 275 278 282 283 287 288 290 292 295 292 291 291 291 292 292 295 298 296 297 295 296 294 291 287
253 259 253 249 252 245 249 252 252 258 263 268 271 276 274 274 274 275 275 275 280 283 284 285 283 289 289 289 290 292 292 293 295 299 301 301 302 299 301 300 298 296 293
244 244 253 253 251 252 254 259 262 265 269 271 272 271 275 275 273 277 277 279 279 275 283 287 288 288 287 288 289 290 293 295 298 305 306 307 307 307 307 303 301 297 293
250 252 252 257 258 258 260 262 264 266 266 268 271 273 273 275 276 278 279 276 276 283 285 282 284 284 286 288 289 292 295 298 303 306 306 308 310 310 309 308 302 297 294
256 255 255 258 262 261 263 263 261 263 267 270 271 273 273 275 276 274 275 279 282 279 280 280 283 285 287 291 293 296 298 300 304 307 309 310 313 312 312 308 302 298 293
256 254 257 260 262 263 262 264 266 269 270 270 270 271 274 276 273 271 277 281 276 278 280 282 284 287 289 291 294 297 299 303 305 306 310 310 312 312 310 308 304 298 287
255 253 256 260 263 264 262 266 268 269 268 269 271 270 269 271 273 277 274 272 273 277 280 281 282 286 289 292 294 297 299 302 304 306 314 310 314 311 308 309 304 291 274
Height
3148 3152 3154 3155 3155 3158 3162 3164 3164 3165 3167 3168 3169 3170 3172 3173 3174 3175 3176 3176 3177 3178 3176 3175 3174 3172 3171 3171 3170 3170 3169 3168 3167 3166 3165 3164 3163 3161 3160 3160 3159 3158 3158
3148 3151 3154 3155 3156 3159 3162 3164 3165 3166 3167 3168 3169 3170 3171 3172 3173 3174 3175 3175 3175 3174 3174 3173 3172 3170 3170 3169 3168 3168 3167 3165 3165 3163 3161 3159 3157 3157 3156 3155 3155 3154 3153
3146 3150 3153 3155 3157 3160 3162 3163 3164 3166 3167 3168 3170 3170 3170 3170 3170 3172 3173 3173 3173 3172 3171 3170 3170 3169 3168 3167 3166 3164 3163 3162 3160 3159 3157 3155 3154 3152 3151 3149 3149 3148 3147
3145 3148 3151 3153 3156 3159 3162 3162 3163 3164 3166 3166 3167 3168 3167 3167 3168 3169 3169 3170 3171 3170 3169 3168 3167 3165 3164 3163 3161 3159 3159 3158 3156 3154 3153 3151 3149 3147 3146 3145 3143 3141 3140
3142 3146 3149 3152 3155 3157 3159 3160 3160 3162 3163 3164 3164 3165 3166 3167 3167 3168 3168 3168 3168 3167 3165 3164 3163 3162 3160 3158 3156 3155 3155 3153 3151 3149 3147 3145 3143 3141 3140 3138 3136 3135 3134
3140 3143 3146 3150 3153 3154 3156 3158 3158 3160 3160 3160 3161 3162 3163 3164 3164 3165 3165 3165 3164 3163 3162 3160 3159 3157 3155 3153 3151 3150 3149 3147 3146 3144 3142 3140 3137 3134 3132 3130 3128 3127 3126
3136 3140 3142 3146 3149 3151 3154 3154 3154 3156 3156 3158 3157 3159 3160 3161 3160 3159 3159 3160 3159 3157 3155 3155 3154 3152 3150 3147 3145 3144 3143 3141 3139 3138 3136 3134 3130 3127 3125 3123 3121 3119 3116
3130 3135 3137 3142 3146 3147 3151 3152 3153 3154 3154 3154 3155 3155 3157 3157 3153 3152 3153 3154 3152 3151 3151 3149 3148 3146 3144 3141 3139 3137 3137 3134 3132 3131 3129 3127 3124 3120 3118 3116 3113 3110 3107
3124 3130 3132 3138 3143 3144 3147 3149 3149 3149 3149 3149 3150 3152 3151 3151 3148 3147 3147 3147 3147 3147 3146 3143 3141 3140 3138 3135 3133 3131 3130 3128 3126 3123 3120 3118 3116 3114 3111 3108 3106 3102 3098
3120 3125 3129 3133 3138 3140 3143 3145 3144 3145 3144 3145 3144 3146 3146 3146 3143 3141 3142 3142 3141 3140 3139 3136 3136 3133 3131 3128 3126 3125 3123 3121 3120 3117 3113 3110 3107 3107 3105 3102 3098 3094 3090
3115 3120 3124 3127 3131 3135 3138 3139 3140 3140 3140 3139 3139 3140 3139 3139 3139 3136 3135 3135 3134 3133 3133 3130 3128 3125 3123 3120 3118 3117 3116 3114 3111 3108 3106 3103 3099 3096 3096 3093 3090 3086 3081
3112 3116 3120 3122 3126 3130 3132 3134 3133 3134 3134 3132 3133 3132 3132 3133 3133 3131 3128 3128 3127 3125 3123 3124 3120 3118 3116 3112 3110 3108 3107 3105 3101 3098 3096 3094 3091 3087 3084 3081 3078 3075 3072
3109 3112 3115 3118 3122 3124 3125 3125 3126 3126 3126 3125 3123 3125 3125 3125 3125 3124 3122 3121 3118 3119 3116 3116 3114 3111 3109 3105 3102 3099 3097 3095 3092 3089 3087 3084 3081 3078 3074 3071 3068 3065 3061
3105 3107 3109 3112 3114 3116 3116 3116 3117 3116 3116 3116 3113 3113 3116 3116 3116 3116 3114 3112 3110 3109 3107 3106 3106 3104 3100 3097 3094 3090 3087 3085 3083 3080 3077 3073 3070 3067 3064 3060 3056 3053 3050
3100 3102 3104 3104 3105 3106 3107 3107 3105 3104 3103 3102 3105 3106 3108 3108 3107 3106 3105 3105 3102 3099 3096 3094 3095 3094 3091 3087 3084 3081 3078 3076 3071 3068 3066 3063 3060 3056 3052 3049 3045 3042 3039
3094 3095 3097 3097 3097 3098 3096 3095 3095 3094 3091 3095 3098 3099 3100 3099 3099 3097 3096 3096 3093 3091 3087 3083 3082 3082 3081 3079 3077 3071 3067 3063 3061 3058 3056 3052 3049 3046 3042 3038 3034 3030 3027
3086 3085 3086 3087 3088 3087 3084 3083 3076 3084 3085 3087 3090 3091 3091 3091 3090 3089 3087 3086 3084 3081 3078 3075 3071 3069 3068 3066 3065 3062 3057 3053 3051 3048 3044 3041 3038 3035 3031 3027 3022 3018 3014
3073 3075 3077 3077 3079 3078 3073 3071 3074 3078 3077 3080 3082 3082 3082 3082 3082 3080 3079 3076 3074 3071 3069 3065 3061 3058 3056 3055 3052 3049 3047 3043 3040 3037 3033 3031 3027 3022 3019 3015 3010 3005 3000
3068 3067 3068 3069 3070 3069 3068 3065 3066 3069 3071 3073 3073 3073 3073 3072 3071 3069 3067 3067 3065 3062 3058 3053 3050 3048 3046 3044 3040 3037 3034 3032 3029 3026 3024 3021 3015 3010 3005 3000 2995 2989 2983
3061 3061 3062 3063 3064 3064 3063 3064 3065 3066 3065 3065 3064 3063 3063 3062 3060 3059 3058 3056 3054 3050 3047 3043 3040 3037 3034 3033 3029 3025 3023 3021 3017 3016 3013 3008 3002 2999 2992 2986 2979 2973 2967
3052 3054 3053 3055 3056 3057 3059 3059 3058 3058 3057 3056 3055 3053 3053 3051 3050 3048 3047 3045 3042 3039 3036 3033 3030 3027 3024 3022 3018 3015 3010 3006 3004 3001 2997 2993 2990 2983 2977 2970 2963 2956 2949
3043 3045 3046 3048 3048 3049 3049 3050 3050 3050 3048 3047 3046 3045 3042 3041 3039 3037 3036 3033 3032 3029 3026 3022 3020 3017 3015 3011 3007 3004 2999 2995 2990 2988 2981 2980 2972 2966 2960 2953 2946 2938 2933
3037 3038 3039 3040 3041 3041 3042 3042 3041 3040 3040 3038 3035 3033 3032 3030 3028 3027 3025 3023 3021 3018 3014 3012 3010 3006 3003 3000 2996 2992 2988 2983 2977 2973 2967 2962 2957 2950 2944 2937 2930 2922 2916
3028 3029 3031 3031 3031 3032 3032 3032 3031 3030 3029 3027 3025 3023 3021 3020 3019 3017 3014 3012 3009 3006 3003 3001 2998 2995 2991 2988 2984 2979 2975 2970 2966 2957 2953 2944 2941 2934 2928 2923 2915 2907 2901
3019 3020 3021 3021 3021 3021 3021 3021 3021 3019 3018 3017 3015 3014 3013 3011 3009 3006 3004 3002 2997 2995 2993 2990 2987 2984 2980 2976 2972 2967 2962 2956 2951 2946 2942 2930 2927 2918 2913 2907 2901 2895 2891
3009 3009 3011 3011 3011 3010 3011 3011 3011 3010 3009 3008 3006 3004 3002 3000 2997 2995 2994 2990 2987 2985 2983 2980 2976 2972 2968 2964 2960 2955 2950 2945 2938 2934 2930 2918 2913 2901 2894 2895 2888 2884 2883